EN

Hourly Weather Abergavenny

Today, 15 June, Tuesday

Time Temperature Precipitation Wind Pressure Humidity
00:00 +10°C° 0 mm 1 mps 751 mmHg 86%
01:00 +9°C° 0 mm 1 mps 751 mmHg 86%
02:00 +9°C° 0 mm 1 mps 751 mmHg 87%
03:00 +9°C° 0 mm 1 mps 751 mmHg 88%
04:00 +10°C° 0 mm 1 mps 751 mmHg 86%
05:00 +10°C° 0 mm 1 mps 751 mmHg 85%
06:00 +11°C° 0 mm 1 mps 751 mmHg 83%
07:00 +13°C° 0 mm 1 mps 751 mmHg 79%
08:00 +14°C° 0 mm 1 mps 751 mmHg 75%
09:00 +16°C° 0 mm 1 mps 751 mmHg 70%
10:00 +18°C° 0 mm 1 mps 751 mmHg 67%
11:00 +18°C° 0 mm 2 mps 751 mmHg 64%
12:00 +19°C° 0 mm 2 mps 750 mmHg 61%
13:00 +20°C° 0 mm 2 mps 750 mmHg 60%
14:00 +20°C° 0 mm 2 mps 749 mmHg 60%
15:00 +20°C° 0 mm 3 mps 749 mmHg 59%
16:00 +20°C° 0 mm 3 mps 749 mmHg 63%
17:00 +19°C° 0 mm 2 mps 748 mmHg 67%
18:00 +19°C° 0 mm 2 mps 748 mmHg 71%
19:00 +17°C° 0 mm 2 mps 747 mmHg 74%
20:00 +15°C° 0 mm 2 mps 747 mmHg 78%
21:00 +13°C° 0 mm 1 mps 747 mmHg 81%
22:00 +13°C° 0 mm 1 mps 747 mmHg 80%
23:00 +12°C° 0 mm 1 mps 746 mmHg 78%

Tomorrow, 16 June, Wednesday

Time Temperature Precipitation Wind Pressure Humidity
00:00 +12°C° 0 mm 1 mps 746 mmHg 76%
01:00 +11°C° 0 mm 1 mps 746 mmHg 78%
02:00 +11°C° 0 mm 1 mps 745 mmHg 80%
03:00 +11°C° 0 mm 1 mps 745 mmHg 82%
04:00 +12°C° 0 mm 1 mps 744 mmHg 82%
05:00 +13°C° 0 mm 1 mps 744 mmHg 82%
06:00 +14°C° 0 mm 1 mps 744 mmHg 82%
07:00 +15°C° 0 mm 1 mps 744 mmHg 79%
08:00 +17°C° 0 mm 2 mps 744 mmHg 75%
09:00 +18°C° 0 mm 2 mps 744 mmHg 71%
10:00 +19°C° 0 mm 2 mps 743 mmHg 70%
11:00 +20°C° 0 mm 3 mps 743 mmHg 69%
12:00 +20°C° 0 mm 3 mps 743 mmHg 68%
13:00 +20°C° 0 mm 3 mps 743 mmHg 69%
14:00 +20°C° 0 mm 3 mps 742 mmHg 70%
15:00 +21°C° 0 mm 4 mps 742 mmHg 70%
16:00 +20°C° 0 mm 3 mps 742 mmHg 73%
17:00 +20°C° 0 mm 3 mps 742 mmHg 75%
18:00 +20°C° 0 mm 2 mps 742 mmHg 78%
19:00 +18°C° 0 mm 2 mps 742 mmHg 82%
20:00 +17°C° 0 mm 2 mps 742 mmHg 86%
21:00 +16°C° 0 mm 1 mps 742 mmHg 90%
22:00 +15°C° 0.1 mm 1 mps 742 mmHg 91%
23:00 +15°C° 0.1 mm 1 mps 742 mmHg 93%

Day after tomorrow, 17 June, Thursday

Time Temperature Precipitation Wind Pressure Humidity
00:00 +15°C° 0.1 mm 1 mps 742 mmHg 94%
01:00 +14°C° 0.8 mm 1 mps 742 mmHg 95%
02:00 +14°C° 0.8 mm 1 mps 741 mmHg 95%
03:00 +13°C° 0.8 mm 1 mps 741 mmHg 96%
04:00 +13°C° 0.6 mm 1 mps 742 mmHg 94%
05:00 +13°C° 0.6 mm 1 mps 742 mmHg 93%
06:00 +13°C° 0.6 mm 2 mps 742 mmHg 91%
07:00 +14°C° 0 mm 2 mps 742 mmHg 86%
08:00 +15°C° 0 mm 2 mps 743 mmHg 81%
09:00 +16°C° 0 mm 2 mps 743 mmHg 76%
10:00 +17°C° 0 mm 2 mps 743 mmHg 72%
11:00 +18°C° 0 mm 2 mps 743 mmHg 69%
12:00 +19°C° 0 mm 2 mps 744 mmHg 65%
13:00 +19°C° 0 mm 2 mps 744 mmHg 66%
14:00 +19°C° 0 mm 2 mps 744 mmHg 68%
15:00 +19°C° 0 mm 3 mps 744 mmHg 70%
16:00 +18°C° 0.1 mm 3 mps 744 mmHg 73%
17:00 +17°C° 0.1 mm 3 mps 745 mmHg 76%
18:00 +17°C° 0.1 mm 4 mps 745 mmHg 79%
19:00 +16°C° 0 mm 3 mps 745 mmHg 80%
20:00 +13°C° 0 mm 3 mps 746 mmHg 81%
21:00 +12°C° 0 mm 3 mps 746 mmHg 82%
22:00 +12°C° 0 mm 3 mps 746 mmHg 81%
23:00 +11°C° 0 mm 3 mps 747 mmHg 81%

18 June, Friday

Time Temperature Precipitation Wind Pressure Humidity
00:00 +10°C° 0 mm 3 mps 747 mmHg 80%
01:00 +10°C° 0 mm 3 mps 747 mmHg 79%
02:00 +10°C° 0 mm 3 mps 747 mmHg 78%
03:00 +10°C° 0 mm 3 mps 747 mmHg 77%
04:00 +10°C° 0 mm 4 mps 747 mmHg 78%
05:00 +10°C° 0 mm 4 mps 747 mmHg 79%
06:00 +10°C° 0 mm 4 mps 747 mmHg 81%
07:00 +11°C° 0 mm 4 mps 747 mmHg 78%
08:00 +12°C° 0 mm 5 mps 746 mmHg 76%
09:00 +13°C° 0 mm 6 mps 746 mmHg 73%
10:00 +14°C° 0 mm 5 mps 746 mmHg 75%
11:00 +14°C° 0 mm 5 mps 746 mmHg 77%
12:00 +14°C° 0 mm 5 mps 746 mmHg 79%
13:00 +14°C° 0.1 mm 5 mps 746 mmHg 80%
14:00 +14°C° 0.1 mm 4 mps 746 mmHg 81%
15:00 +13°C° 0.1 mm 4 mps 746 mmHg 82%
16:00 +13°C° 0 mm 3 mps 746 mmHg 83%
17:00 +14°C° 0 mm 2 mps 746 mmHg 83%
18:00 +14°C° 0 mm 2 mps 746 mmHg 84%
19:00 +14°C° 0 mm 1 mps 746 mmHg 87%
20:00 +13°C° 0 mm 1 mps 746 mmHg 89%
21:00 +12°C° 0 mm 1 mps 747 mmHg 92%
22:00 +12°C° 0 mm 1 mps 747 mmHg 92%
23:00 +12°C° 0 mm 1 mps 747 mmHg 93%

19 June, Saturday

Time Temperature Precipitation Wind Pressure Humidity
00:00 +11°C° 0 mm 1 mps 747 mmHg 94%
01:00 +11°C° 0 mm 1 mps 747 mmHg 94%
02:00 +11°C° 0 mm 1 mps 747 mmHg 94%
03:00 +11°C° 0 mm 1 mps 747 mmHg 94%
04:00 +11°C° 0 mm 1 mps 747 mmHg 93%
05:00 +12°C° 0 mm 1 mps 747 mmHg 93%
06:00 +12°C° 0 mm 1 mps 747 mmHg 92%
07:00 +13°C° 0 mm 2 mps 747 mmHg 89%
08:00 +14°C° 0 mm 2 mps 747 mmHg 85%
09:00 +14°C° 0 mm 3 mps 747 mmHg 82%
10:00 +16°C° 0.1 mm 3 mps 746 mmHg 78%
11:00 +15°C° 0.1 mm 4 mps 746 mmHg 75%
12:00 +17°C° 0.1 mm 4 mps 746 mmHg 72%
13:00 +17°C° 0.1 mm 4 mps 745 mmHg 73%
14:00 +16°C° 0.1 mm 5 mps 745 mmHg 75%
15:00 +16°C° 0.1 mm 5 mps 744 mmHg 77%
16:00 +16°C° 0.1 mm 5 mps 744 mmHg 79%
17:00 +16°C° 0.1 mm 5 mps 744 mmHg 80%
18:00 +16°C° 0.1 mm 5 mps 743 mmHg 82%
19:00 +15°C° 0 mm 4 mps 743 mmHg 85%
20:00 +14°C° 0 mm 4 mps 742 mmHg 88%
21:00 +13°C° 0 mm 3 mps 742 mmHg 91%
22:00 +12°C° 0 mm 3 mps 741 mmHg 92%
23:00 +12°C° 0 mm 3 mps 740 mmHg 93%

20 June, Sunday

Time Temperature Precipitation Wind Pressure Humidity
00:00 +11°C° 0 mm 3 mps 740 mmHg 93%
01:00 +11°C° 2.8 mm 4 mps 739 mmHg 95%
02:00 +10°C° 2.8 mm 4 mps 738 mmHg 96%
03:00 +10°C° 2.8 mm 4 mps 737 mmHg 97%
04:00 +10°C° 5.4 mm 4 mps 736 mmHg 97%
05:00 +9°C° 5.4 mm 5 mps 735 mmHg 97%
06:00 +8°C° 5.4 mm 5 mps 734 mmHg 97%
07:00 +10°C° 1.2 mm 4 mps 734 mmHg 97%
08:00 +10°C° 1.2 mm 3 mps 734 mmHg 97%
09:00 +10°C° 1.2 mm 2 mps 733 mmHg 96%
10:00 +13°C° 0.1 mm 2 mps 734 mmHg 95%
11:00 +13°C° 0.1 mm 3 mps 734 mmHg 94%
12:00 +14°C° 0.1 mm 4 mps 734 mmHg 92%
13:00 +14°C° 0.3 mm 5 mps 734 mmHg 91%
14:00 +15°C° 0.3 mm 5 mps 734 mmHg 89%
15:00 +15°C° 0.3 mm 6 mps 734 mmHg 88%
16:00 +15°C° 0.5 mm 6 mps 734 mmHg 90%
17:00 +15°C° 0.5 mm 5 mps 734 mmHg 91%
18:00 +14°C° 0.5 mm 5 mps 734 mmHg 93%
19:00 +14°C° 0.1 mm 4 mps 734 mmHg 94%
20:00 +13°C° 0.1 mm 4 mps 735 mmHg 94%
21:00 +12°C° 0.1 mm 3 mps 735 mmHg 95%
22:00 +11°C° 0 mm 3 mps 735 mmHg 95%
23:00 +11°C° 0 mm 3 mps 735 mmHg 95%
Show more